+07,Max TemperatureF,Mean TemperatureF,Min TemperatureF,Max Dew PointF,MeanDew PointF,Min DewpointF,Max Humidity, Mean Humidity, Min Humidity, Max Sea Level PressureIn, Mean Sea Level PressureIn, Min Sea Level PressureIn, Max VisibilityMiles, Mean VisibilityMiles, Min VisibilityMiles, Max Wind SpeedMPH, Mean Wind SpeedMPH, Max Gust SpeedMPH,PrecipitationIn, CloudCover, Events, WindDirDegrees
2011-10-1,89,83,77,75,72,72,83,67,55,29.77,29.70,29.62,6,6,6,6,1,,0.00,5,,215
2011-10-2,82,78,73,73,72,72,94,83,70,29.80,29.74,29.68,6,4,2,6,1,,0.00,6,Rain,300
2011-10-3,78,78,77,73,72,70,83,81,78,29.83,29.78,29.71,6,4,2,4,1,,0.00,6,Rain,244
2011-10-4,84,78,75,72,71,70,89,77,62,29.83,29.80,29.71,6,4,1,5,2,,0.00,6,Rain,332
2011-10-5,87,81,75,73,72,70,89,71,55,29.89,29.82,29.74,6,6,4,7,2,,0.00,5,,139
2011-10-6,87,80,73,72,71,70,89,68,55,29.92,29.85,29.74,6,6,4,6,2,,0.00,5,,302
2011-10-7,87,80,73,72,71,70,89,70,58,29.92,29.86,29.77,6,5,2,6,1,,0.00,3,,352
2011-10-8,87,81,75,73,72,72,89,75,58,29.92,29.85,29.77,6,6,4,7,2,,0.00,4,Rain-Thunderstorm,110
2011-10-9,89,81,73,73,72,70,89,71,52,29.95,29.87,29.74,6,6,2,6,3,,0.00,4,,86
2011-10-10,91,83,75,73,72,70,89,66,49,29.95,29.87,29.77,6,6,3,5,2,,0.00,4,,158
2011-10-11,93,83,73,72,71,70,88,67,46,29.95,29.85,29.74,6,5,2,5,1,,0.00,4,,203
2011-10-12,95,85,75,72,71,70,89,63,44,29.92,29.82,29.71,6,6,2,5,1,,0.00,4,,194
2011-10-13,89,82,75,73,72,70,89,67,55,29.89,29.80,29.68,6,5,2,5,2,,0.00,5,,166
2011-10-14,93,84,75,72,71,70,89,62,49,29.86,29.80,29.68,6,6,4,6,2,,0.00,3,,151
2011-10-15,91,83,75,73,72,70,89,65,49,29.89,29.79,29.68,6,5,1,8,2,22,0.00,4,Rain-Thunderstorm,208
2011-10-16,89,82,75,73,72,72,89,75,59,29.89,29.82,29.74,6,5,4,5,2,,0.00,5,Rain-Thunderstorm,173
2011-10-17,87,80,73,73,72,70,94,74,58,29.95,29.87,29.77,6,6,2,8,2,,0.00,5,Rain,259
2011-10-18,82,78,73,72,70,70,88,75,66,29.98,29.91,29.83,6,6,6,5,1,,0.00,6,,245
2011-10-19,86,80,73,70,68,66,88,66,51,29.92,29.86,29.80,6,6,4,7,2,,0.00,4,,329
2011-10-20,86,78,71,70,68,64,88,68,48,29.95,29.89,29.80,6,5,2,4,0,,0.00,5,,160
2011-10-21,89,80,71,72,69,66,88,68,46,29.98,29.90,29.80,6,5,3,5,1,,0.00,4,,169
2011-10-22,89,80,71,70,69,68,88,66,49,29.95,29.86,29.77,6,5,2,4,1,,0.00,3,,178
2011-10-23,89,80,71,70,68,66,88,62,46,29.95,29.87,29.77,6,5,2,4,1,,0.00,1,,147
2011-10-24,91,81,71,73,70,68,88,65,52,29.95,29.86,29.77,6,6,3,5,2,,0.00,2,,139
2011-10-25,93,83,73,72,70,68,83,64,49,29.95,29.87,29.77,6,6,3,5,2,,0.00,2,,167
2011-10-26,91,80,69,70,68,66,94,61,43,29.98,29.90,29.80,6,6,3,4,2,,0.00,1,,165
2011-10-27,91,82,73,72,69,66,88,63,43,29.98,29.89,29.80,6,6,4,5,2,,0.00,2,,186
2011-10-28,87,80,73,72,70,66,88,68,55,30.01,29.92,29.83,6,6,4,7,3,,0.00,2,,226
2011-10-29,87,79,71,72,69,68,88,70,55,29.98,29.91,29.77,6,5,2,5,2,,0.00,3,,132
2011-10-30,87,78,69,70,67,64,94,67,46,29.95,29.87,29.77,6,6,3,6,1,,0.00,1,,204
2011-10-31,86,78,69,70,67,66,88,68,51,29.98,29.90,29.80,6,5,3,4,1,,0.00,3,,166